Walnut Ridge, AR

6:11 AM CST on December 06, 2016 (GMT -0600)
Walnut Ridge Regional

Weather History for KARG - July, 2013

Change the Weather History Date:

Thursday, July 4, 2013

  Actual Average Record
Temperature  
Mean Temperature 73 °F -  
Max Temperature 86 °F 87 °F 98 °F (2012)
Min Temperature 60 °F 69 °F 60 °F (2013)
Cooling Degree Days 8    
Growing Degree Days 23 (Base 50)    
Moisture  
Dew Point 62 °F    
Average Humidity 68    
Maximum Humidity 100    
Minimum Humidity 37    
Precipitation  
Precipitation 0.00 in - - ()
Sea Level Pressure  
Sea Level Pressure 30.03 in    
Wind  
Wind Speed 6 mph (North)    
Max Wind Speed 12 mph    
Max Gust Speed 16 mph    
Visibility 10 miles    
Events      
Averages and records for this station are not official NWS values.
T = Trace of Precipitation, MM = Missing Value Source: NWS Daily Summary

Daily Weather History Graph

Daily Weather History Graph

Search for Another Location

Airport or City:

Trip Planner

Search our weather history database for the weather conditions in past years. The results will help you decide how hot, cold, wet, or windy it might be!

Date:

Astronomy

Jul. 04, 2013 Rise Set
Actual Time 5:51 AM CDT 8:24 PM CDT
Civil Twilight 5:21 AM CDT 8:54 PM CDT
Nautical Twilight 4:44 AM CDT 9:31 PM CDT
Astronomical Twilight 4:03 AM CDT 10:12 PM CDT
Moon 3:06 AM CDT (7/4) 5:30 PM CDT (7/4)
Length of Visible Light 15h 32m
Length of Day
14h 32m
Waning Crescent, 11% of the Moon is Illuminated
Jul 4
Waning Crescent
Jul 8
New
Jul 15
First Quarter
Jul 22
Full
Jul 29
Last Quarter

Hourly Weather History & Observations

Time (CDT) Temp. Heat Index Dew Point Humidity Pressure Visibility Wind Dir Wind Speed Gust Speed Precip Events Conditions
12:15 AM 68.0 °F - 62.6 °F 83% 30.06 in 10.0 mi East 3.5 mph - N/A   Clear
12:35 AM 66.2 °F - 62.6 °F 88% 30.06 in 10.0 mi NE 3.5 mph - N/A   Clear
12:55 AM 66.2 °F - 62.6 °F 88% 30.06 in 10.0 mi NNW 4.6 mph - N/A   Clear
1:15 AM 66.2 °F - 62.6 °F 88% 30.05 in 10.0 mi NNW 3.5 mph - N/A   Clear
1:35 AM 66.2 °F - 62.6 °F 88% 30.05 in 10.0 mi North 3.5 mph - N/A   Clear
1:55 AM 66.2 °F - 62.6 °F 88% 30.04 in 10.0 mi North 4.6 mph - N/A   Clear
2:15 AM 64.4 °F - 62.6 °F 94% 30.04 in 9.0 mi NNW 5.8 mph - N/A   Clear
2:35 AM 64.4 °F - 62.6 °F 94% 30.04 in 10.0 mi NNW 5.8 mph - N/A   Clear
2:55 AM 64.4 °F - 62.6 °F 94% 30.04 in 10.0 mi North 3.5 mph - N/A   Clear
3:15 AM 62.6 °F - 60.8 °F 94% 30.04 in 10.0 mi NNE 4.6 mph - N/A   Clear
3:35 AM 62.6 °F - 62.6 °F 100% 30.04 in 10.0 mi Calm Calm - N/A   Clear
3:55 AM 62.6 °F - 60.8 °F 94% 30.04 in 9.0 mi NNW 3.5 mph - N/A   Clear
4:15 AM 62.6 °F - 60.8 °F 94% 30.04 in 10.0 mi NNW 5.8 mph - N/A   Clear
4:35 AM 62.6 °F - 60.8 °F 94% 30.04 in 9.0 mi NNW 4.6 mph - N/A   Clear
4:55 AM 62.6 °F - 60.8 °F 94% 30.04 in 8.0 mi NNW 5.8 mph - N/A   Clear
5:15 AM 60.8 °F - 59.0 °F 94% 30.04 in 10.0 mi NNW 5.8 mph - N/A   Clear
5:35 AM 60.8 °F - 60.8 °F 100% 30.05 in 9.0 mi NNW 5.8 mph - N/A   Clear
5:55 AM 60.8 °F - 59.0 °F 94% 30.05 in 7.0 mi NNW 5.8 mph - N/A   Clear
6:15 AM 60.8 °F - 59.0 °F 94% 30.05 in 6.0 mi North 3.5 mph - N/A   Clear
6:35 AM 60.8 °F - 59.0 °F 94% 30.05 in 7.0 mi North 3.5 mph - N/A   Clear
6:55 AM 62.6 °F - 60.8 °F 94% 30.06 in 7.0 mi NNW 4.6 mph - N/A   Clear
7:15 AM 62.6 °F - 60.8 °F 94% 30.06 in 8.0 mi North 5.8 mph - N/A   Clear
7:35 AM 64.4 °F - 60.8 °F 88% 30.06 in 7.0 mi NNW 5.8 mph - N/A   Clear
7:55 AM 66.2 °F - 62.6 °F 88% 30.07 in 8.0 mi North 5.8 mph - N/A   Clear
8:15 AM 66.2 °F - 62.6 °F 88% 30.07 in 8.0 mi NNW 6.9 mph - N/A   Clear
8:35 AM 69.8 °F - 62.6 °F 78% 30.08 in 8.0 mi NNW 6.9 mph - N/A   Clear
8:55 AM 71.6 °F - 62.6 °F 73% 30.08 in 10.0 mi North 6.9 mph - N/A   Clear
9:15 AM 73.4 °F - 64.4 °F 73% 30.07 in 10.0 mi North 6.9 mph - N/A   Clear
9:35 AM 73.4 °F - 64.4 °F 73% 30.08 in 10.0 mi North 6.9 mph - N/A   Clear
9:55 AM 75.2 °F - 64.4 °F 69% 30.08 in 10.0 mi North 8.1 mph - N/A   Clear
10:15 AM 77.0 °F - 62.6 °F 61% 30.08 in 10.0 mi North 9.2 mph - N/A   Clear
10:35 AM 78.8 °F - 64.4 °F 61% 30.08 in 10.0 mi NNE 9.2 mph - N/A   Clear
11:35 AM 80.6 °F 81.8 °F 62.6 °F 54% 30.08 in 10.0 mi NNE 8.1 mph - N/A   Scattered Clouds
11:55 AM 82.4 °F 82.9 °F 60.8 °F 48% 30.07 in 10.0 mi NE 9.2 mph - N/A   Partly Cloudy
12:15 PM 80.6 °F 81.5 °F 60.8 °F 51% 30.07 in 10.0 mi NNE 5.8 mph - N/A   Partly Cloudy
12:35 PM 82.4 °F 82.9 °F 60.8 °F 48% 30.06 in 10.0 mi NE 5.8 mph - N/A   Scattered Clouds
12:55 PM 82.4 °F 83.4 °F 62.6 °F 51% 30.06 in 10.0 mi NNE 6.9 mph - N/A   Scattered Clouds
1:35 PM 84.2 °F 84.4 °F 60.8 °F 45% 30.05 in 10.0 mi NE 5.8 mph - N/A   Clear
1:55 PM 84.2 °F 84.4 °F 60.8 °F 45% 30.04 in 10.0 mi North 10.4 mph - N/A   Clear
2:15 PM 84.2 °F 83.8 °F 59.0 °F 42% 30.03 in 10.0 mi NNE 9.2 mph 16.1 mph N/A   Clear
2:35 PM 84.2 °F 83.5 °F 57.2 °F 40% 30.02 in 10.0 mi North 9.2 mph - N/A   Clear
2:55 PM 84.2 °F 83.5 °F 57.2 °F 40% 30.01 in 10.0 mi NNE 6.9 mph - N/A   Partly Cloudy
3:15 PM 84.2 °F 83.5 °F 57.2 °F 40% 30.01 in 10.0 mi NNE 9.2 mph - N/A   Partly Cloudy
3:35 PM 86.0 °F 84.9 °F 57.2 °F 37% 30.01 in 10.0 mi NNE 11.5 mph - N/A   Clear
3:55 PM 86.0 °F 84.9 °F 57.2 °F 37% 30.00 in 10.0 mi North 5.8 mph - N/A   Clear
4:15 PM 86.0 °F 84.9 °F 57.2 °F 37% 30.00 in 10.0 mi NNE 9.2 mph - N/A   Clear
4:35 PM 86.0 °F 84.9 °F 57.2 °F 37% 29.99 in 10.0 mi North 11.5 mph - N/A   Partly Cloudy
4:55 PM 86.0 °F 86.1 °F 60.8 °F 43% 29.99 in 10.0 mi NNW 5.8 mph - N/A   Mostly Cloudy
5:15 PM 84.2 °F 83.8 °F 59.0 °F 42% 29.98 in 10.0 mi NNE 6.9 mph - N/A   Scattered Clouds
5:35 PM 86.0 °F 86.1 °F 60.8 °F 43% 29.98 in 10.0 mi NNE 8.1 mph - N/A   Scattered Clouds
5:55 PM 84.2 °F 84.4 °F 60.8 °F 45% 29.98 in 10.0 mi NNE 8.1 mph - N/A   Scattered Clouds
6:15 PM 84.2 °F 84.4 °F 60.8 °F 45% 29.98 in 10.0 mi North 5.8 mph - N/A   Scattered Clouds
6:35 PM 84.2 °F 84.4 °F 60.8 °F 45% 29.98 in 10.0 mi North 8.1 mph - N/A   Scattered Clouds
6:55 PM 84.2 °F 84.4 °F 60.8 °F 45% 29.98 in 10.0 mi North 8.1 mph - N/A   Partly Cloudy
7:15 PM 82.4 °F 82.9 °F 60.8 °F 48% 29.97 in 10.0 mi North 6.9 mph - N/A   Clear
7:35 PM 82.4 °F 82.9 °F 60.8 °F 48% 29.97 in 10.0 mi North 5.8 mph - N/A   Clear
7:55 PM 80.6 °F 81.5 °F 60.8 °F 51% 29.98 in 10.0 mi North 5.8 mph - N/A   Clear
8:15 PM 80.6 °F 81.5 °F 60.8 °F 51% 29.97 in 10.0 mi NNE 5.8 mph - N/A   Clear
8:35 PM 78.8 °F - 62.6 °F 57% 29.98 in 10.0 mi NNE 5.8 mph - N/A   Clear
8:55 PM 78.8 °F - 62.6 °F 57% 29.98 in 10.0 mi NNE 6.9 mph - N/A   Clear
9:15 PM 77.0 °F - 64.4 °F 65% 29.99 in 10.0 mi NNE 5.8 mph - N/A   Clear
9:35 PM 77.0 °F - 64.4 °F 65% 30.00 in 10.0 mi NNE 9.2 mph - N/A   Clear
10:15 PM 75.2 °F - 66.2 °F 73% 30.02 in 10.0 mi ENE 11.5 mph - N/A   Clear
10:35 PM 75.2 °F - 66.2 °F 73% 30.02 in 10.0 mi ENE 9.2 mph - N/A   Clear
10:55 PM 75.2 °F - 66.2 °F 73% 30.01 in 10.0 mi East 9.2 mph - N/A   Clear
11:15 PM 75.2 °F - 66.2 °F 73% 30.02 in 10.0 mi East 4.6 mph - N/A   Clear
11:35 PM 73.4 °F - 68.0 °F 83% 30.01 in 10.0 mi NE 5.8 mph - N/A   Clear
11:55 PM 71.6 °F - 66.2 °F 83% 30.01 in 10.0 mi NNE 4.6 mph - N/A   Clear